Date String (YYYY-MM-DD hh:mm:ss) UTC,Instrument flags,Ambient pressure (hPa),Sample flow (lpm),Bypass flow (lpm),Sample temperature (°C),Ambient temperature (°C),ASC tube jacket temperature (°C),LED temperature (°C),Box temperature (°C),Sample RH (%),Span deviation,Mass concentration (μg/m³),Mass concentration (μg/m³),Mass concentration (μg/m³)
DateTimeUTC,F1_M11,P_M11,Q1_M11,Q2_M11,T1_M11,T2_M11,T3_M11,T4_M11,T5_M11,U1_M11,ZSPAN_M11,X2_M11,X0_M11,X1_M11
2022-01-07 19:00:00,,0814.2,5.00,0.00,23.7,23.0,00.0,32.6,25.5,08.8,0000.0,0000.23,0000.48,0000.12
2022-01-07 19:01:00,,0814.1,5.01,0.00,23.7,23.0,00.0,32.6,25.5,08.8,0000.0,0000.22,0000.43,0000.12
2022-01-07 19:02:00,,0814.1,4.99,0.00,23.7,23.0,00.0,32.6,25.5,08.7,0000.0,0000.20,0000.33,0000.12
2022-01-07 19:03:00,,0814.1,5.01,0.00,23.7,23.0,00.0,32.6,25.5,09.1,0000.0,0000.20,0000.32,0000.12
2022-01-07 19:04:00,,0814.1,4.99,0.00,23.8,23.0,00.0,32.6,25.5,09.2,0000.0,0000.19,0000.31,0000.11
2022-01-07 19:05:00,,0813.8,4.99,0.00,23.8,23.0,00.0,32.6,25.5,08.9,0000.0,0000.19,0000.42,0000.11
2022-01-07 19:06:00,,0813.6,5.01,0.00,23.8,23.1,00.0,32.6,25.6,08.6,0000.0,0000.19,0000.40,0000.11
2022-01-07 19:07:00,,0813.6,4.99,0.00,23.8,23.1,00.0,32.7,25.6,08.6,0000.0,0000.16,0000.34,0000.11
2022-01-07 19:08:00,,0813.6,5.01,0.00,23.8,23.1,00.0,32.7,25.6,08.8,0000.0,0000.14,0000.31,0000.11
2022-01-07 19:09:00,,0813.5,5.00,0.00,23.9,23.1,00.0,32.7,25.7,08.9,0000.0,0000.14,0000.30,0000.11
2022-01-07 19:10:00,,0813.5,5.00,0.00,23.9,23.1,00.0,32.7,25.7,08.8,0000.0,0000.12,0000.27,0000.11
2022-01-07 19:11:00,,0813.5,4.99,0.00,23.9,23.2,00.0,32.7,25.7,09.0,0000.0,0000.13,0000.27,0000.11
2022-01-07 19:12:00,,0813.5,5.01,0.00,23.9,23.2,00.0,32.8,25.8,08.7,0000.0,0000.14,0000.30,0000.11
2022-01-07 19:13:00,,0813.5,5.00,0.00,24.0,23.3,00.0,32.8,25.9,08.6,0000.0,0000.14,0000.30,0000.11
2022-01-07 19:14:00,,0813.5,4.99,0.00,24.0,23.3,00.0,32.8,25.9,08.8,0000.0,0000.14,0000.30,0000.11
2022-01-07 19:15:00,,0813.5,5.00,0.00,24.0,23.3,00.0,32.8,25.9,08.7,0000.0,0000.14,0000.29,0000.11
2022-01-07 19:16:00,,0813.4,5.01,0.00,24.0,23.3,00.0,32.8,25.9,08.7,0000.0,0000.13,0000.17,0000.11
2022-01-07 19:17:00,,0813.4,4.99,0.00,24.1,23.3,00.0,32.9,25.9,08.7,0000.0,0000.13,0000.17,0000.11
2022-01-07 19:18:00,,0813.4,5.00,0.00,24.1,23.4,00.0,32.9,25.9,08.8,0000.0,0000.14,0000.18,0000.11
2022-01-07 19:19:00,,0813.4,5.00,0.00,24.1,23.4,00.0,32.9,26.0,08.6,0000.0,0000.14,0000.19,0000.12
2022-01-07 19:20:00,,0813.3,4.98,0.00,24.1,23.4,00.0,32.9,26.0,08.6,0000.0,0000.14,0000.19,0000.12
2022-01-07 19:21:00,,0813.3,5.00,0.00,24.2,23.4,00.0,32.9,26.0,08.6,0000.0,0000.14,0000.19,0000.12
2022-01-07 19:22:00,,0813.3,5.01,0.00,24.2,23.4,00.0,33.0,26.1,08.9,0000.0,0000.14,0000.19,0000.12
2022-01-07 19:23:00,,0813.3,5.00,0.00,24.2,23.5,00.0,33.0,26.1,09.0,0000.0,0000.13,0000.17,0000.12
2022-01-07 19:24:00,,0813.3,5.01,0.00,24.2,23.5,00.0,33.0,26.1,08.9,0000.0,0000.14,0000.20,0000.12
2022-01-07 19:25:00,,0813.3,4.99,0.00,24.3,23.6,00.0,33.0,26.1,09.4,0000.0,0000.15,0000.25,0000.12
2022-01-07 19:26:00,,0813.3,5.01,0.00,24.3,23.6,00.0,33.0,26.2,08.9,0000.0,0000.16,0000.29,0000.12
2022-01-07 19:27:00,,0813.2,5.00,0.00,24.3,23.6,00.0,33.1,26.2,07.7,0000.0,0000.16,0000.28,0000.12
2022-01-07 19:28:00,,0813.2,4.99,0.00,24.3,23.6,00.0,33.1,26.2,08.0,0000.0,0000.17,0000.69,0000.12
2022-01-07 19:29:00,,0813.1,5.00,0.00,24.4,23.7,00.0,33.1,26.3,08.3,0000.0,0000.18,0000.88,0000.13
2022-01-07 19:30:00,,0813.1,5.01,0.00,24.4,23.7,00.0,33.1,26.3,08.4,0000.0,0000.19,0000.90,0000.12
2022-01-07 19:31:00,,0813.1,4.99,0.00,24.4,23.7,00.0,33.2,26.3,07.8,0000.0,0000.19,0000.90,0000.12
2022-01-07 19:32:00,,0813.1,5.00,0.00,24.4,23.8,00.0,33.2,26.3,08.1,0000.0,0000.20,0000.90,0000.13
2022-01-07 19:33:00,,0813.1,5.01,0.00,24.5,23.8,00.0,33.2,26.4,08.0,0000.0,0000.20,0000.91,0000.13
2022-01-07 19:34:00,,0813.1,4.99,0.00,24.5,23.8,00.0,33.2,26.4,07.9,0000.0,0000.19,0000.89,0000.13
2022-01-07 19:35:00,,0813.1,5.01,0.00,24.5,23.9,00.0,33.3,26.4,07.9,0000.0,0000.19,0000.88,0000.13
2022-01-07 19:36:00,,0813.2,5.00,0.00,24.6,23.9,00.0,33.3,26.5,07.9,0000.0,0000.17,0000.83,0000.13
2022-01-07 19:37:00,,0813.2,4.99,0.00,24.6,23.9,00.0,33.3,26.5,07.8,0000.0,0000.17,0000.81,0000.13
2022-01-07 19:38:00,,0813.0,5.00,0.00,24.6,23.9,00.0,33.3,26.5,08.2,0000.0,0000.18,0000.82,0000.13
2022-01-07 19:39:00,,0813.2,5.01,0.00,24.6,24.0,00.0,33.4,26.5,08.7,0000.0,0000.17,0002.16,0000.13
2022-01-07 19:40:00,,0813.1,4.99,0.00,24.6,24.0,00.0,33.4,26.6,08.6,0000.0,0000.16,0002.52,0000.13
2022-01-07 19:41:00,,0813.1,5.00,0.00,24.7,24.0,00.0,33.4,26.6,08.6,0000.0,0000.17,0002.55,0000.13
2022-01-07 19:42:00,,0813.1,5.01,0.00,24.7,24.0,00.0,33.4,26.6,08.3,0000.0,0000.18,0003.27,0000.13
2022-01-07 19:43:00,,0812.9,5.00,0.00,24.7,24.0,00.0,33.5,26.6,08.4,0000.0,0000.18,0003.69,0000.13
2022-01-07 19:44:00,,0812.9,5.01,0.00,24.7,24.1,00.0,33.5,26.6,08.4,0000.0,0000.18,0003.69,0000.13
2022-01-07 19:45:00,,0812.9,5.00,0.00,24.8,24.1,00.0,33.5,26.7,08.6,0000.0,0000.18,0003.69,0000.13
2022-01-07 19:46:00,,0812.9,4.99,0.00,24.8,24.1,00.0,33.5,26.7,08.6,0000.0,0000.18,0003.68,0000.13
2022-01-07 19:47:00,,0812.8,5.01,0.00,24.8,24.1,00.0,33.6,26.7,08.7,0000.0,0000.19,0003.68,0000.13
2022-01-07 19:48:00,,0812.8,5.00,0.00,24.8,24.1,00.0,33.6,26.7,08.7,0000.0,0000.18,0003.67,0000.13
2022-01-07 19:49:00,,0812.8,5.00,0.00,24.9,24.2,00.0,33.6,26.8,08.4,0000.0,0000.19,0003.70,0000.13
2022-01-07 19:50:00,,0812.9,4.99,0.00,24.9,24.2,00.0,33.6,26.8,08.6,0000.0,0000.19,0001.84,0000.13
2022-01-07 19:51:00,,0812.9,5.01,0.00,24.9,24.2,00.0,33.7,26.8,08.5,0000.0,0000.21,0001.46,0000.14
2022-01-07 19:52:00,,0812.8,5.02,0.00,24.9,24.3,00.0,33.7,26.8,08.7,0000.0,0000.19,0001.41,0000.14
2022-01-07 19:53:00,,0812.7,4.99,0.00,25.0,24.3,00.0,33.7,26.9,09.1,0000.0,0000.19,0000.63,0000.14
2022-01-07 19:54:00,,0812.7,5.01,0.00,25.0,24.3,00.0,33.7,26.9,09.5,0000.0,0000.45,0000.67,0000.36
2022-01-07 19:55:00,,0812.6,4.98,0.00,25.0,24.4,00.0,33.8,26.9,09.2,0000.0,0000.86,0001.26,0000.67
2022-01-07 19:56:00,,0812.6,5.00,0.00,25.0,24.4,00.0,33.8,26.9,09.3,0000.0,0001.35,0001.93,0001.12
2022-01-07 19:57:00,,0812.6,5.01,0.00,25.1,24.4,00.0,33.8,27.0,08.9,0000.0,0001.76,0002.49,0001.49
2022-01-07 19:58:00,,0812.5,4.99,0.00,25.1,24.4,00.0,33.8,27.0,09.4,0000.0,0002.23,0003.15,0001.90
2022-01-07 19:59:00,,0812.5,5.01,0.00,25.1,24.5,00.0,33.8,27.0,09.5,0000.0,0002.95,0004.15,0002.56
